Zurück zum Katalog

GLOBALSTAR M080

AktivKommunikationLEO
NORAD 38041·PAYLOAD·🇺🇸 United States

Gestartet Dec 28, 2011 von Baikonur Cosmodrome

Loading…

Nächste Überflüge (nächste 24 Stunden)

TLE

AktuellSource: Space-Track

Epoche: Sep 14, 2026, 15:11 UTC

1 38041U 11080B   26257.63319972 -.00000091  00000-0  71468-4 0  9999
2 38041  52.0046 106.7293 0001177  88.5759 306.6795 12.62258801680185

Verfolge GLOBALSTAR M080 in Echtzeit mit AllMySat

Download on the App Store